TimeCST,TemperatureF,Dew PointF,Humidity,Sea Level PressureIn,VisibilityMPH,Wind Direction,Wind SpeedMPH,Gust SpeedMPH,PrecipitationIn,Events,Conditions,WindDirDegrees,DateUTC
12:53 AM,14.0,-0.9,52,30.52,10.0,North,19.6,-,N/A,,Clear,350,2014-02-26 06:53:00
1:53 AM,12.0,-0.9,56,30.52,10.0,North,18.4,-,N/A,,Clear,350,2014-02-26 07:53:00
2:53 AM,10.9,-2.0,56,30.50,10.0,NNW,10.4,-,N/A,,Clear,340,2014-02-26 08:53:00
3:53 AM,9.0,-4.0,56,30.49,10.0,NNW,12.7,-,N/A,,Clear,340,2014-02-26 09:53:00
4:53 AM,7.0,-2.0,67,30.45,10.0,NNW,5.8,-,N/A,,Clear,340,2014-02-26 10:53:00
5:53 AM,6.1,-2.9,67,30.44,10.0,NW,3.5,-,N/A,,Clear,320,2014-02-26 11:53:00
6:53 AM,3.9,-2.9,73,30.44,10.0,Calm,Calm,-,N/A,,Clear,0,2014-02-26 12:53:00
7:53 AM,8.1,-2.9,61,30.43,10.0,West,3.5,-,N/A,,Clear,280,2014-02-26 13:53:00
8:53 AM,10.9,-2.0,56,30.41,10.0,NW,3.5,-,N/A,,Clear,320,2014-02-26 14:53:00
9:53 AM,14.0,-0.9,52,30.38,10.0,West,8.1,-,N/A,,Clear,260,2014-02-26 15:53:00
10:53 AM,18.0,1.0,48,30.36,10.0,WSW,10.4,-,N/A,,Clear,250,2014-02-26 16:53:00
11:53 AM,21.0,1.9,44,30.30,10.0,WSW,15.0,21.9,N/A,,Clear,240,2014-02-26 17:53:00
12:53 PM,23.0,1.9,40,30.24,10.0,SW,17.3,23.0,N/A,,Clear,230,2014-02-26 18:53:00
1:53 PM,27.0,5.0,39,30.18,10.0,West,12.7,21.9,N/A,,Clear,260,2014-02-26 19:53:00
2:53 PM,28.9,7.0,40,30.14,10.0,West,18.4,25.3,N/A,,Clear,260,2014-02-26 20:53:00
3:53 PM,30.0,7.0,38,30.09,10.0,SW,17.3,-,N/A,,Clear,230,2014-02-26 21:53:00
4:53 PM,30.0,9.0,41,30.06,10.0,WSW,15.0,26.5,N/A,,Clear,250,2014-02-26 22:53:00
5:53 PM,28.0,10.9,49,30.04,10.0,WSW,13.8,-,N/A,,Clear,250,2014-02-26 23:53:00
6:53 PM,27.0,12.9,56,30.04,10.0,SW,9.2,-,N/A,,Clear,230,2014-02-27 00:53:00
7:53 PM,26.1,14.0,60,30.04,10.0,SW,9.2,-,N/A,,Clear,220,2014-02-27 01:53:00
8:53 PM,24.1,15.1,69,30.02,10.0,SSW,8.1,-,N/A,,Clear,210,2014-02-27 02:53:00
9:53 PM,24.1,15.1,69,30.02,10.0,SW,6.9,-,N/A,,Clear,230,2014-02-27 03:53:00
10:53 PM,25.0,16.0,69,30.02,10.0,West,9.2,-,N/A,,Clear,260,2014-02-27 04:53:00
11:53 PM,23.0,15.1,72,30.02,10.0,WNW,5.8,-,N/A,,Clear,300,2014-02-27 05:53:00